EW3845 Weather Reports


Display with metric or nautical units.
time (UTC)temp
F
wind
direction
speed
MPH
gust
MPH
rain 1hr
in
rain 24hr
in
rain mn
in
humidity
%
barometer
mb
20260504060142 54 92 0.0 0.0 0.00 0.04 0.00 92 1012.0
20260504044533 53 86 0.0 0.0 0.00 0.04 0.00 92 1011.3
20260504043032 52 88 0.0 0.0 0.00 0.04 0.00 92 1011.4
20260504041535 52 88 0.0 0.0 0.00 0.04 0.00 92 1011.4
20260504040033 52 88 0.0 0.0 0.00 0.04 0.00 92 1011.3
20260504034540 52 88 0.0 0.0 0.00 0.04 0.00 92 1011.3
20260504033031 52 91 0.0 0.0 0.00 0.04 0.00 92 1011.3
20260504031528 52 90 0.0 0.0 0.00 0.04 0.00 92 1011.3
20260504030037 52 91 0.0 0.0 0.00 0.04 0.00 92 1011.4
20260504024527 53 92 0.0 0.0 0.00 0.04 0.00 91 1011.4
20260504023025 53 91 0.0 0.0 0.00 0.04 0.00 91 1011.5
20260504021525 53 91 0.0 0.0 0.00 0.04 0.00 91 1011.5
20260504020028 53 92 0.0 0.0 0.00 0.04 0.00 91 1011.4
20260504014523 54 196 0.0 0.0 0.00 0.04 0.00 91 1011.5
20260504013020 54 211 0.0 0.0 0.00 0.04 0.00 91 1011.4
20260504011522 54 211 0.0 0.0 0.00 0.04 0.00 91 1011.4
20260504010018 54 207 0.0 0.0 0.00 0.04 0.00 91 1011.4
20260504004521 55 207 0.0 0.0 0.00 0.04 0.00 90 1011.2
20260504003015 55 207 0.0 0.0 0.00 0.04 0.00 90 1011.3
20260504001514 55 207 0.0 0.0 0.00 0.04 0.00 90 1011.4
20260504000013 56 207 0.0 0.0 0.00 0.04 0.00 90 1011.4
20260503234512 56 207 0.0 0.0 0.00 0.04 0.00 90 1011.5
20260503233010 56 207 0.0 0.0 0.00 0.04 0.00 89 1011.4
20260503231515 56 207 0.0 0.0 0.00 0.04 0.00 89 1011.3
20260503230007 57 207 0.0 0.0 0.00 0.04 0.00 89 1011.2
20260503224504 58 207 0.0 0.0 0.00 0.04 0.00 89 1011.4
20260503223002 58 207 0.0 0.0 0.00 0.04 0.00 89 1011.3
20260503221600 58 215 0.0 0.0 0.00 0.04 0.00 89 1011.7
20260503220105 58 215 0.0 0.0 0.00 0.04 0.04 89 1011.6
20260503214559 58 215 0.0 0.0 0.00 0.04 0.04 89 1011.4
20260503213133 58 215 0.0 0.0 0.00 0.04 0.04 88 1011.3
20260503211620 58 215 0.0 0.0 0.00 0.04 0.04 88 1011.3
20260503210057 58 215 0.0 0.0 0.00 0.04 0.04 88 1011.4
20260503204617 59 215 0.0 0.0 0.00 0.04 0.04 88 1011.3
20260503203106 59 215 0.0 0.0 0.00 0.04 0.04 88 1011.4
20260503201556 59 215 0.0 0.0 0.00 0.04 0.04 88 1011.2
20260503200055 59 213 0.0 0.0 0.00 0.18 0.04 88 1011.1
20260503194555 60 213 0.0 0.0 0.00 0.18 0.04 89 1011.0
20260503193055 60 191 0.0 0.0 0.00 0.18 0.04 88 1010.9
20260503191603 60 191 0.0 0.0 0.00 0.18 0.04 88 1010.9
20260503190053 61 191 0.0 0.0 0.00 0.35 0.04 87 1010.8
20260503184614 61 191 0.0 0.0 0.00 0.35 0.04 87 1010.7
20260503183054 61 191 0.0 0.0 0.00 0.35 0.04 86 1010.7
20260503181552 61 191 0.0 0.0 0.00 0.35 0.04 86 1010.7
20260503180052 61 191 0.0 0.0 0.00 0.35 0.04 86 1010.7
20260503174654 61 191 0.0 0.0 0.00 0.35 0.04 86 1010.7
20260503174550 62 191 0.0 0.0 0.00 1.73 0.04 86 1010.8
20260503174037 62 191 0.0 0.0 0.00 1.73 0.04 86 1010.7
20260503173549 62 191 0.0 0.0 0.00 1.73 0.04 86 1010.7
20260503173154 61 191 0.0 0.0 0.00 0.35 0.04 86 1010.6
20260503173053 62 191 0.0 0.0 0.00 1.73 0.04 86 1010.7
20260503172544 62 293 0.0 0.0 0.00 1.73 0.04 86 1010.7
20260503172051 62 293 0.0 0.0 0.00 1.73 0.04 86 1010.7
20260503171644 61 293 0.0 0.0 0.00 0.35 0.04 86 1010.6
20260503171543 62 293 0.0 0.0 0.00 1.73 0.04 86 1010.8
20260503171051 62 294 0.0 0.0 0.00 1.73 0.04 86 1010.7
20260503170604 62 294 0.0 0.0 0.00 1.73 0.04 86 1010.7
20260503170151 61 296 0.0 0.0 0.00 0.35 0.04 86 1010.6
20260503160153 60 340 0.0 0.0 0.01 0.35 0.04 89 1011.0
20260503150550 60 294 0.0 0.0 0.00 1.69 0.03 88 1011.0
20260503150139 60 295 0.0 0.0 0.00 0.34 0.03 88 1010.9
20260503140146 61 291 0.0 0.0 0.02 0.34 0.03 85 1011.0
20260503131044 63 296 0.0 0.0 0.12 1.65 0.02 81 1011.2
20260503130557 63 298 0.0 0.0 0.12 1.65 0.02 80 1011.3
20260503130145 63 295 0.0 0.0 0.02 0.32 0.02 79 1011.1
20260503120151 68 286 0.0 0.0 0.00 0.31 0.00 62 1010.9
20260503110544 69 289 0.0 0.0 0.00 1.54 0.00 58 1011.1
20260503110151 69 284 0.0 0.0 0.00 0.31 0.00 57 1010.9
20260503100103 70 155 0.0 0.0 0.00 1.54 0.00 58 1010.7
20260503081556 65 142 0.0 0.0 0.00 0.31 0.00 72 1010.7
20260503071554 60 38 0.0 0.0 0.00 0.31 0.00 92 1010.5